DateTimeUTC,F1_A11,F1_S11,BsB_S11,BsG_S11,BsR_S11,BbsB_S11,BbsG_S11,BbsR_S11,BaB_A11,BaG_A11,BaR_A11,Tu_S11,T_S11,Uu_S11,U_S11,P_S11,T1_A11
2021-05-19T23:00:00Z,00000200,21000000,,,,,,,-000.06,-000.32,-000.12,16.7,23.9,00.9,00.6,0675.3,30.9
2021-05-19T23:01:00Z,00000200,21000000,,,,,,,-000.16,0000.30,-000.05,16.7,23.9,00.9,00.6,0675.3,30.9
2021-05-19T23:02:00Z,00000200,21000000,,,,,,,-000.27,-000.06,-000.10,16.7,23.9,00.9,00.6,0675.2,30.9
2021-05-19T23:03:00Z,00000200,61000000,,,,,,,0000.82,0000.56,0000.38,16.7,23.9,00.9,00.6,0675.2,30.9
2021-05-19T23:04:00Z,00000200,41000000,0004.43,0002.53,0001.53,0000.94,0000.52,0000.46,0000.82,0000.63,0000.58,16.8,23.7,01.0,00.6,0676.1,30.9
2021-05-19T23:05:00Z,00000200,01000000,0004.31,0002.51,0001.86,0000.74,0000.60,0000.42,0001.84,0001.34,0001.00,16.8,23.6,01.1,00.7,0676.2,30.9
2021-05-19T23:06:00Z,00000200,01000000,0004.20,0002.67,0001.59,0000.76,0000.32,0000.26,0000.47,0000.94,0000.45,16.8,23.6,01.0,00.7,0676.1,30.9
2021-05-19T23:07:00Z,00000200,01000000,0004.36,0002.75,0001.86,0000.67,0000.67,0000.58,0001.34,0000.85,0000.98,16.8,23.5,01.0,00.7,0676.1,30.9
2021-05-19T23:08:00Z,00000200,01000000,0004.06,0002.79,0001.71,0000.92,0000.58,0000.25,0000.90,0001.07,0000.74,16.8,23.5,01.1,00.7,0676.1,30.9
2021-05-19T23:09:00Z,00000200,01000000,0003.95,0002.88,0001.76,0000.23,0000.50,0000.52,0000.87,0000.71,0000.42,16.8,23.5,01.1,00.7,0676.1,30.9
2021-05-19T23:10:00Z,00000200,01000000,0004.34,0002.48,0001.61,0000.86,0000.38,0000.34,0001.21,0000.96,0000.71,16.8,23.5,01.0,00.7,0676.1,30.9
2021-05-19T23:11:00Z,00000200,01000000,0003.83,0002.36,0001.99,0000.88,0000.54,0000.46,0000.74,0000.71,0000.33,16.8,23.5,01.0,00.7,0676.2,30.9
2021-05-19T23:12:00Z,00000200,01000000,0004.43,0002.61,0001.70,0000.94,0000.31,0000.45,0000.89,0000.87,0000.82,16.7,23.5,01.0,00.7,0676.1,30.9
2021-05-19T23:13:00Z,00000200,01000000,0004.37,0002.65,0001.33,0000.40,0000.26,0000.45,0001.20,0000.96,0000.71,16.7,23.4,01.1,00.7,0676.1,30.9
2021-05-19T23:14:00Z,00000200,01000000,0003.46,0002.85,0001.61,0000.79,0000.59,0000.48,0000.83,0000.77,0000.38,16.7,23.4,01.1,00.7,0676.2,30.9
2021-05-19T23:15:00Z,00000200,01000000,0004.59,0002.98,0001.84,0000.45,0000.38,0000.38,0001.58,0001.19,0000.62,16.7,23.4,01.0,00.7,0676.2,30.9
2021-05-19T23:16:00Z,00000200,01000000,0004.82,0002.65,0001.89,0001.11,0000.47,0000.48,0000.78,0000.78,0000.96,16.8,23.4,01.0,00.7,0676.2,30.9
2021-05-19T23:17:00Z,00000200,01000000,0004.15,0002.68,0001.85,0000.60,0000.50,0000.29,0001.14,0000.95,0000.90,16.8,23.5,01.0,00.7,0676.2,30.9
2021-05-19T23:18:00Z,00000200,01000000,0003.66,0002.54,0001.59,0000.34,0000.22,0000.27,0001.21,0001.06,0000.78,16.9,23.5,01.0,00.7,0676.1,30.9
2021-05-19T23:19:00Z,00000200,01000000,0003.86,0002.82,0001.60,0000.56,0000.38,0000.67,0000.91,0000.79,0000.66,16.9,23.6,00.9,00.6,0676.1,30.9
2021-05-19T23:20:00Z,00000200,01000000,0004.30,0002.84,0001.76,0000.35,0000.64,0000.54,0001.08,0000.68,0000.35,16.9,23.6,01.0,00.6,0676.2,30.9
2021-05-19T23:21:00Z,00000200,01000000,0004.05,0002.60,0001.71,0000.55,0000.45,0000.57,0000.70,0001.16,0000.34,16.9,23.6,00.9,00.6,0676.2,30.9
2021-05-19T23:22:00Z,00000200,01000000,0004.58,0002.68,0001.67,0000.29,0000.29,0000.29,0001.31,0000.94,0000.86,16.9,23.5,01.0,00.7,0676.2,30.9
2021-05-19T23:23:00Z,00000200,01000000,0004.10,0002.85,0001.92,0000.82,0000.57,0000.49,0000.98,0000.84,0000.63,16.9,23.5,00.9,00.6,0676.2,30.9
2021-05-19T23:24:00Z,00000200,01000000,0004.27,0002.69,0001.64,0001.13,0000.44,0000.49,0000.55,0000.89,0000.72,16.9,23.5,00.9,00.6,0676.2,30.9
2021-05-19T23:25:00Z,00000200,01000000,0004.16,0002.84,0001.86,0000.86,0000.51,0000.21,0001.29,0000.69,0000.36,16.9,23.5,00.9,00.6,0676.2,30.9
2021-05-19T23:26:00Z,00000200,01000000,0003.68,0002.66,0001.85,0000.57,0000.51,0000.42,0000.75,0001.07,0000.87,16.9,23.5,00.8,00.5,0676.2,30.9
2021-05-19T23:27:00Z,00000200,01000000,0004.32,0002.30,0001.60,0000.74,0000.57,0000.48,0001.00,0000.58,0000.51,16.9,23.5,00.8,00.5,0676.2,30.9
2021-05-19T23:28:00Z,00000200,01000000,0004.15,0002.75,0001.64,0000.81,0000.48,0000.35,0001.25,0001.15,0000.83,16.8,23.5,00.7,00.5,0676.2,30.9
2021-05-19T23:29:00Z,00000200,01000000,0004.10,0002.46,0001.85,0000.19,0000.68,0000.52,0000.94,0001.08,0000.56,16.8,23.5,00.8,00.5,0676.2,30.9
2021-05-19T23:30:00Z,00000200,01000000,0004.05,0002.74,0001.53,0000.95,0000.55,0000.41,0000.98,0000.97,0000.69,16.8,23.5,00.7,00.5,0676.2,30.9
2021-05-19T23:31:00Z,00000200,01000000,0004.79,0002.52,0001.89,0001.18,0000.54,0000.48,0000.88,0000.56,0000.55,16.9,23.5,00.8,00.5,0676.2,30.9
2021-05-19T23:32:00Z,00000200,01000000,0004.53,0002.68,0001.65,0000.89,0000.30,0000.52,0001.23,0001.12,0000.79,16.9,23.5,00.8,00.5,0676.2,30.9
2021-05-19T23:33:00Z,00000200,01000000,0004.83,0002.81,0001.54,0000.29,0000.38,0000.15,0001.22,0001.32,0001.01,16.9,23.5,00.6,00.4,0676.2,30.9
2021-05-19T23:34:00Z,00000200,01000000,0004.82,0002.86,0001.94,0000.69,0000.45,0000.45,0001.13,0000.68,0000.27,17.0,23.5,00.7,00.4,0676.2,30.9
2021-05-19T23:35:00Z,00000200,01000000,0004.32,0002.77,0001.63,0000.57,0000.47,0000.29,0000.88,0000.07,0000.63,17.0,23.6,00.7,00.4,0676.2,30.9
2021-05-19T23:36:00Z,00000200,01000000,0004.99,0002.75,0001.91,0000.53,0000.51,0000.68,0000.88,0001.70,0000.72,16.9,23.5,00.7,00.4,0676.2,30.9
2021-05-19T23:37:00Z,00000200,01000000,0004.19,0002.45,0001.50,0000.46,0000.50,0000.29,0000.78,0000.47,0000.60,16.9,23.5,00.7,00.4,0676.2,30.9
2021-05-19T23:38:00Z,00000200,01000000,0003.92,0002.90,0001.91,0000.54,0000.56,0000.32,0000.70,0000.71,0000.58,16.9,23.5,00.8,00.5,0676.2,30.9
2021-05-19T23:39:00Z,00000200,01000000,0004.79,0002.58,0001.51,0000.67,0000.37,0000.38,0001.44,0001.09,0000.65,16.9,23.5,00.7,00.4,0676.2,30.9
2021-05-19T23:40:00Z,00000200,01000000,0004.66,0002.27,0001.63,0000.69,0000.41,0000.51,0001.09,0000.70,0000.79,16.9,23.5,00.7,00.5,0676.2,30.9
2021-05-19T23:41:00Z,00000200,01000000,0004.11,0002.81,0001.74,0000.81,0000.48,0000.32,0000.92,0000.94,0000.33,16.8,23.5,00.6,00.4,0676.2,30.9
2021-05-19T23:42:00Z,00000200,01000000,0004.25,0003.14,0001.62,0000.68,0000.51,0000.44,0000.69,0000.85,0000.63,16.8,23.5,00.7,00.4,0676.2,30.9
2021-05-19T23:43:00Z,00000200,01000000,0004.49,0002.67,0001.69,0000.64,0000.38,0000.50,0001.39,0001.07,0000.69,16.8,23.5,00.7,00.5,0676.1,30.9
2021-05-19T23:44:00Z,00000200,01000000,0003.96,0002.49,0001.73,0000.20,0000.43,0000.55,0000.92,0000.93,0000.69,16.8,23.5,00.7,00.4,0676.1,30.9
2021-05-19T23:45:00Z,00000200,01000000,0004.35,0002.93,0001.84,0000.32,0000.35,0000.47,0000.93,0000.86,0000.98,16.8,23.5,00.7,00.4,0676.1,30.9
2021-05-19T23:46:00Z,00000200,01000000,0004.62,0002.48,0001.60,0000.85,0000.30,0000.31,0001.22,0001.07,0000.67,16.8,23.5,00.7,00.4,0676.1,30.9
2021-05-19T23:47:00Z,00000200,01000000,0005.28,0002.65,0001.64,0001.16,0000.41,0000.41,0001.04,0001.08,0000.35,16.8,23.5,00.5,00.3,0676.1,30.9
2021-05-19T23:48:00Z,00000200,01000000,0004.50,0002.63,0002.09,0000.88,0000.46,0000.69,0001.50,0000.92,0001.12,16.9,23.5,00.6,00.4,0676.1,30.9
2021-05-19T23:49:00Z,00000200,01000000,0004.20,0002.55,0001.54,0000.52,0000.41,0000.09,0000.56,0000.36,0000.00,16.9,23.5,00.6,00.4,0676.1,30.9
2021-05-19T23:50:00Z,00000200,01000000,0005.02,0002.50,0001.64,0000.70,0000.74,0000.53,0000.98,0001.32,0000.94,16.9,23.5,00.5,00.3,0676.1,30.9
2021-05-19T23:51:00Z,00000200,01000000,0004.83,0002.50,0001.69,0000.44,0000.48,0000.36,0001.18,0000.94,0000.90,16.8,23.5,00.6,00.4,0676.1,30.9
2021-05-19T23:52:00Z,00000200,01000000,0003.13,0003.02,0001.28,0000.68,0000.57,0000.41,0000.60,0000.46,0000.53,16.8,23.5,00.5,00.4,0676.1,30.9
2021-05-19T23:53:00Z,00000200,01000000,0004.03,0002.87,0001.70,0000.18,0000.55,0000.44,0001.12,0001.05,0000.50,16.8,23.5,00.6,00.4,0676.1,30.9
2021-05-19T23:54:00Z,00000200,01000000,0004.63,0002.79,0001.66,0000.65,0000.45,0000.40,0001.20,0000.98,0000.67,16.8,23.5,00.5,00.3,0676.1,30.9
2021-05-19T23:55:00Z,00000200,01000000,0004.43,0002.68,0001.38,-000.11,0000.61,0000.42,0000.97,0000.81,0000.78,16.8,23.4,00.5,00.3,0676.1,30.9
2021-05-19T23:56:00Z,00000200,01000000,0003.89,0002.48,0001.63,0000.78,0000.39,0000.20,0000.81,0000.75,0000.61,16.8,23.4,00.4,00.3,0676.1,30.9
2021-05-19T23:57:00Z,00000200,41000000,,,,,,,0000.57,0000.78,0000.29,16.8,23.4,00.9,00.6,0676.2,30.9
2021-05-19T23:58:00Z,00000200,61000000,,,,,,,-000.26,-000.16,-000.08,16.5,23.6,00.6,00.4,0675.1,30.9
2021-05-19T23:59:00Z,00000200,21000000,,,,,,,-000.10,-000.45,-000.29,16.5,23.7,00.3,00.2,0675.1,30.9
